Bay City, TX

6:09 PM CDT on October 17, 2017 (GMT -0500)
Bay City

Weather History for KBYY - March, 2014

Change the Weather History Date:

Friday, March 28, 2014

  Actual Average (KLBX) Record (KLBX)
Temperature  
Mean Temperature 76 °F -  
Max Temperature 81 °F 71 °F 84 °F (2017)
Min Temperature 69 °F 56 °F 41 °F (2005)
Cooling Degree Days 10    
Growing Degree Days 26 (Base 50)    
Moisture  
Dew Point 71 °F    
Average Humidity 92    
Maximum Humidity 99    
Minimum Humidity 73    
Precipitation  
Precipitation 0.00 in - - ()
Sea Level Pressure  
Sea Level Pressure 29.81 in    
Wind  
Wind Speed 9 mph (South)    
Max Wind Speed 13 mph    
Max Gust Speed 18 mph    
Visibility 4 miles    
Events Fog    
Averages and records for this station are not official NWS values.
T = Trace of Precipitation, MM = Missing Value Source: NWS Daily Summary

Daily Weather History Graph

Daily Weather History Graph

Search for Another Location

Airport or City:

Trip Planner

Search our weather history database for the weather conditions in past years. The results will help you decide how hot, cold, wet, or windy it might be!

Date:

Astronomy

Mar. 28, 2014 Rise Set
Actual Time 7:17 AM CDT 7:39 PM CDT
Civil Twilight 6:54 AM CDT 8:03 PM CDT
Nautical Twilight 6:26 AM CDT 8:30 PM CDT
Astronomical Twilight 5:58 AM CDT 8:59 PM CDT
Moon 5:39 AM CDT (3/28) 5:45 PM CDT (3/28)
Length of Visible Light 13h 09m
Length of Day
12h 21m
Waning Crescent, 6% of the Moon is Illuminated
Mar 28
Waning Crescent
Mar 30
New
Apr 7
First Quarter
Apr 15
Full
Apr 22
Last Quarter

Hourly Weather History & Observations

Time (CDT) Temp. Heat Index Dew Point Humidity Pressure Visibility Wind Dir Wind Speed Gust Speed Precip Events Conditions
12:15 AM 71.6 °F - 70.7 °F 97% 29.83 in 4.0 mi South 10.4 mph - N/A   Overcast
12:35 AM 71.6 °F - 70.7 °F 97% 29.83 in 4.0 mi South 10.4 mph - N/A   Overcast
12:55 AM 71.6 °F - 70.7 °F 97% 29.83 in 3.0 mi South 10.4 mph - N/A   Overcast
1:15 AM 71.6 °F - 70.7 °F 97% 29.83 in 2.5 mi South 9.2 mph - N/A   Overcast
1:35 AM 71.6 °F - 70.7 °F 97% 29.83 in 3.0 mi South 10.4 mph - N/A   Overcast
1:55 AM 71.6 °F - 70.9 °F 98% 29.83 in 3.0 mi South 10.4 mph - N/A   Overcast
2:15 AM 71.6 °F - 70.9 °F 98% 29.82 in 2.5 mi South 10.4 mph - N/A   Overcast
2:35 AM 71.4 °F - 70.7 °F 98% 29.81 in 2.0 mi South 11.5 mph - N/A   Overcast
2:55 AM 71.2 °F - 70.7 °F 98% 29.81 in 2.0 mi South 10.4 mph - N/A   Overcast
3:15 AM 71.2 °F - 70.7 °F 98% 29.80 in 2.0 mi South 11.5 mph 17.3 mph N/A   Overcast
3:35 AM 71.1 °F - 70.5 °F 98% 29.80 in 1.8 mi South 10.4 mph - N/A   Overcast
3:55 AM 70.9 °F - 70.3 °F 98% 29.79 in 1.2 mi South 10.4 mph - N/A   Overcast
4:15 AM 70.7 °F - 70.2 °F 98% 29.79 in 1.0 mi South 9.2 mph - N/A   Overcast
4:35 AM 70.7 °F - 70.2 °F 98% 29.79 in 0.8 mi South 11.5 mph - N/A   Overcast
4:55 AM 70.7 °F - 70.0 °F 98% 29.79 in 0.8 mi South 10.4 mph - N/A   Overcast
5:15 AM 70.7 °F - 70.0 °F 98% 29.79 in 0.8 mi SSE 10.4 mph - N/A   Overcast
5:35 AM 70.7 °F - 70.2 °F 98% 29.79 in 0.8 mi South 9.2 mph - N/A   Overcast
5:55 AM 70.9 °F - 70.3 °F 98% 29.79 in 0.8 mi South 11.5 mph - N/A   Overcast
6:15 AM 70.9 °F - 70.3 °F 98% 29.80 in 0.8 mi South 11.5 mph - N/A   Overcast
6:35 AM 70.9 °F - 70.3 °F 98% 29.80 in 0.8 mi South 9.2 mph - N/A   Overcast
6:55 AM 71.1 °F - 70.7 °F 99% 29.80 in 0.8 mi South 12.7 mph - N/A   Overcast
7:15 AM 71.1 °F - 70.7 °F 99% 29.80 in 0.8 mi South 9.2 mph - N/A   Overcast
7:35 AM 70.9 °F - 70.7 °F 99% 29.81 in 1.2 mi South 9.2 mph - N/A   Overcast
7:55 AM 70.7 °F - 70.3 °F 99% 29.82 in 0.5 mi South 8.1 mph - N/A Fog Fog
8:15 AM 70.7 °F - 70.3 °F 99% 29.82 in 0.5 mi South 6.9 mph - N/A Fog Fog
8:35 AM 70.7 °F - 70.3 °F 99% 29.83 in 0.2 mi South 3.5 mph - N/A Fog Fog
8:55 AM 71.1 °F - 70.7 °F 99% 29.83 in 0.2 mi South 6.9 mph - N/A Fog Fog
9:15 AM 71.4 °F - 71.1 °F 99% 29.84 in 0.5 mi South 6.9 mph - N/A Fog Fog
9:35 AM 72.0 °F - 71.6 °F 99% 29.84 in 0.5 mi SSE 5.8 mph - N/A Fog Fog
9:55 AM 72.0 °F - 71.6 °F 99% 29.84 in 1.0 mi South 6.9 mph - N/A   Overcast
10:15 AM 72.3 °F - 71.8 °F 98% 29.84 in 1.2 mi South 6.9 mph - N/A   Overcast
10:35 AM 72.9 °F - 72.3 °F 98% 29.84 in 2.0 mi South 10.4 mph - N/A   Overcast
10:55 AM 73.4 °F - 72.9 °F 98% 29.84 in 2.5 mi South 9.2 mph - N/A   Overcast
11:15 AM 74.5 °F - 73.6 °F 97% 29.84 in 4.0 mi South 9.2 mph - N/A   Overcast
11:35 AM 75.4 °F - 73.2 °F 93% 29.83 in 4.0 mi SSW 11.5 mph - N/A   Overcast
11:55 AM 76.5 °F - 73.2 °F 90% 29.83 in 5.0 mi South 10.4 mph - N/A   Overcast
12:15 PM 78.4 °F - 73.8 °F 85% 29.83 in 5.0 mi South 10.4 mph - N/A   Haze
12:35 PM 79.3 °F - 72.5 °F 79% 29.83 in 10.0 mi SSW 12.7 mph - N/A   Mostly Cloudy
12:55 PM 81.0 °F 85.2 °F 72.1 °F 74% 29.83 in 10.0 mi SSW 11.5 mph - N/A   Mostly Cloudy
1:15 PM 80.4 °F 84.2 °F 71.4 °F 74% 29.82 in 10.0 mi SSW 10.4 mph - N/A   Overcast
1:35 PM 80.6 °F 84.4 °F 71.1 °F 73% 29.81 in 10.0 mi SSE 9.2 mph - N/A   Mostly Cloudy
1:55 PM 80.2 °F 84.0 °F 71.8 °F 75% 29.81 in 7.0 mi South 10.4 mph - N/A   Overcast
2:15 PM 80.2 °F 84.3 °F 72.3 °F 77% 29.80 in 10.0 mi South 8.1 mph - N/A   Overcast
2:35 PM 80.2 °F 84.2 °F 72.1 °F 76% 29.79 in 7.0 mi South 12.7 mph - N/A   Mostly Cloudy
2:55 PM 79.9 °F - 72.0 °F 77% 29.78 in 7.0 mi South 12.7 mph - N/A   Mostly Cloudy
3:15 PM 80.2 °F 84.0 °F 71.6 °F 75% 29.78 in 7.0 mi South 12.7 mph - N/A   Overcast
3:35 PM 80.2 °F 84.2 °F 72.1 °F 76% 29.78 in 7.0 mi South 11.5 mph 16.1 mph N/A   Overcast
3:55 PM 79.3 °F - 72.5 °F 79% 29.77 in 7.0 mi South 12.7 mph - N/A   Mostly Cloudy
4:15 PM 79.3 °F - 72.1 °F 79% 29.77 in 7.0 mi South 11.5 mph - N/A   Scattered Clouds
4:35 PM 79.0 °F - 72.7 °F 81% 29.76 in 7.0 mi South 11.5 mph - N/A   Mostly Cloudy
4:55 PM 78.6 °F - 72.5 °F 81% 29.75 in 5.0 mi South 11.5 mph 18.4 mph N/A   Haze
5:15 PM 77.9 °F - 72.5 °F 83% 29.76 in 5.0 mi South 9.2 mph - N/A   Haze
5:35 PM 77.2 °F - 72.9 °F 86% 29.76 in 5.0 mi South 10.4 mph - N/A   Overcast
5:55 PM 78.3 °F - 72.5 °F 82% 29.75 in 7.0 mi SSE 11.5 mph - N/A   Scattered Clouds
6:15 PM 77.7 °F - 72.3 °F 83% 29.75 in 7.0 mi South 11.5 mph - N/A   Mostly Cloudy
6:35 PM 77.2 °F - 72.3 °F 85% 29.75 in 5.0 mi SSE 9.2 mph - N/A   Haze
6:55 PM 75.9 °F - 72.0 °F 87% 29.77 in 5.0 mi SSE 6.9 mph - N/A   Scattered Clouds
7:15 PM 74.8 °F - 71.6 °F 90% 29.77 in 4.0 mi South 5.8 mph - N/A   Clear
7:35 PM 73.4 °F - 71.1 °F 92% 29.78 in 4.0 mi SSE 4.6 mph - N/A   Clear
7:55 PM 72.3 °F - 70.7 °F 95% 29.77 in 4.0 mi South 9.2 mph - N/A   Mostly Cloudy
8:15 PM 71.6 °F - 70.5 °F 96% 29.80 in 1.0 mi South 9.2 mph - N/A   Overcast
8:35 PM 71.2 °F - 70.3 °F 97% 29.82 in 0.5 mi South 5.8 mph - N/A Fog Fog
8:55 PM 71.4 °F - 70.7 °F 98% 29.85 in 0.2 mi WSW 4.6 mph - N/A Fog Fog
9:15 PM 71.2 °F - 70.7 °F 98% 29.84 in 0.8 mi SSW 6.9 mph - N/A   Overcast
9:35 PM 71.1 °F - 70.7 °F 99% 29.84 in 3.0 mi SSW 4.6 mph - N/A   Overcast
9:55 PM 71.1 °F - 70.5 °F 98% 29.87 in 3.0 mi Calm Calm - N/A   Overcast
10:15 PM 71.1 °F - 70.5 °F 98% 29.88 in 4.0 mi Calm Calm - N/A   Overcast
10:35 PM 71.1 °F - 70.2 °F 97% 29.89 in 4.0 mi Calm Calm - N/A   Overcast
10:55 PM 70.9 °F - 69.8 °F 96% 29.90 in 4.0 mi Calm Calm - N/A   Overcast
11:15 PM 70.3 °F - 69.4 °F 97% 29.91 in 3.0 mi WNW 3.5 mph - N/A   Overcast
11:35 PM 70.0 °F - 69.1 °F 97% 29.93 in 3.0 mi Calm Calm - N/A   Overcast
11:55 PM 69.8 °F - 68.9 °F 97% 29.93 in 3.0 mi Calm Calm - N/A   Overcast